Regional Weather Roundup
Issued by NWS

Home | Current Version | Previous Version | Graphics & Text | Print | Product List | Glossary On
Versions: 1 2 3 4 5 6 7 8 9 10 11 12 13 14 15 16 17 18 19 20 21 22 23 24 25 26 27
000
ASUS45 KBOI 252310
RWRID

IDAHO REGIONAL WEATHER ROUNDUP
NATIONAL WEATHER SERVICE BOISE ID
500 PM MDT TUE APR 25 2017

NOTE: "FAIR" INDICATES FEW OR NO CLOUDS BELOW 12000 FEET
WITH NO SIGNIFICANT WEATHER AND/OR OBSTRUCTIONS TO VISIBILITY

IDZ012-014-260000-
SOUTHWEST IDAHO


CITY           SKY/WX    TMP DP  RH WIND       PRES   REMARKS
BOISE          CLOUDY    57  32  38 VRB7      29.90F
CALDWELL       CLOUDY    58  34  40 SW15G21   29.90F
MOUNTAIN HOME  PTSUNNY   58  30  35 NW14      29.89F
$$

IDZ016-017-260000-
SOUTHCENTRAL IDAHO


CITY           SKY/WX    TMP DP  RH WIND       PRES   REMARKS
BURLEY         SUNNY     54  30  40 W14G23    29.86F
JEROME         SUNNY     55  28  35 W24G32    29.88F
TWIN FALLS     SUNNY     55  32  41 W20G28    29.89S
$$

IDZ019>023-260000-
SOUTHEAST IDAHO


CITY           SKY/WX    TMP DP  RH WIND       PRES   REMARKS
IDAHO FALLS    LGT RAIN  49  38  65 S9        29.82R
POCATELLO      PTSUNNY   51  33  50 W24       29.85R
REXBURG        CLOUDY    50  39  66 S9        29.80S
$$

IDZ006-010-011-018-031-032-260000-
CENTRAL IDAHO MOUNTAINS


CITY           SKY/WX    TMP DP  RH WIND       PRES   REMARKS
MCCALL         CLOUDY    46  31  55 S12       29.86F
HAILEY         MOSUNNY   55  28  35 S12G21    29.80F
STANLEY          N/A     45  21  38 W8        29.86S
SALMON         PTSUNNY   52  32  46 NE7       29.79F
CHALLIS        PTSUNNY   53  26  35 CALM      29.78F
$$

IDZ002-004-006-007-026-260000-
NORTHERN IDAHO


CITY           SKY/WX    TMP DP  RH WIND       PRES   REMARKS
LEWISTON       CLOUDY    56  43  61 W13G18    29.87F
LOWELL           N/A     55  45  68 CALM      29.88R
COEUR D`ALENE  PTSUNNY   48  41  76 SW20      29.84F
MULLAN PASS    FOG       34  34 100 MISG      29.83S VSB 1/4
$$




USA.gov is the U.S. government's official web portal to all federal, state and local government web resources and services.